sat.trackr.live / text

‹ back to catalog

ONEWEB-0255

NORAD 48973 · 2021-060G

PAYLOAD ACTIVE UNKNOWN

§ Identity

Operator
Country
UK
Launch date
2021-07-01
Launch site
VOSTO
Launch vehicle
Mass (kg)
RCS (m²)

Purposes: comms

External: N2YO · Heavens-Above · Gunter

§ Orbital elements

Epoch: 2026-05-24T22:35:11.629248Z

Period
109.37 min
Inclination
87.9107°
Eccentricity
0.0001825
Mean motion
13.16593661 rev/d
Perigee alt
1,196.4 km
Apogee alt
1,199.1 km
Semi-major
7,575.9 km
B*
-9.6075e-5
RAAN
233.3954°
Arg perigee
98.9074°
Mean anomaly
261.2263°
Rev number
23,660

§ Raw data

ONEWEB-02551 48973U 21060G   26144.94110682 -.00000024  00000+0 -96075-4 0  99962 48973  87.9107 233.3954 0001825  98.9074 261.2263 13.16593661236607

JSON: /api/v1/satellites/48973 · /tle

For live sub-satellite position, see the globe view (requires WebGL).

§ Visibility from observer

Set your observer location to see the next 7 days of passes ≥ 10°. The values pass through the URL so the page stays shareable.

No JS? Fill the form by hand. The geolocation button needs JavaScript.